User: anonymous   Login
Location: Unspecified
(0.0000°N, 0.0000°E)
Time: 02:34:22
(UTC+00:00)
Language:

SARA - Orbit

View from above orbital plane
View from above orbital plane
View from above satellite
View from above satellite

Ground track
Ground track

The orbit data is extracted from the following two-line orbital elements,

1 21576U 91050C   18113.61837624 +.00000022 +00000-0 +20928-4 0  9996
2 21576 098.6880 150.3963 0004903 105.0118 255.1613 14.41506852405762
Epoch (UTC): 23 April 2018 14:50:27
Eccentricity: 0.0004903
inclination: 98.6880°
perigee height: 750 km
apogee height: 757 km
right ascension of ascending node: 150.3963°
argument of perigee: 105.0118°
revolutions per day: 14.41506852
mean anomaly at epoch: 255.1613°
orbit number at epoch: 40576

The dashed part of the orbit path shows where the satellite is in the earth's shadow,  

DLR